TimeCDT,TemperatureF,Dew PointF,Humidity,Sea Level PressureIn,VisibilityMPH,Wind Direction,Wind SpeedMPH,Gust SpeedMPH,PrecipitationIn,Events,Conditions,WindDirDegrees,DateUTC
12:15 AM,37.0,31.8,81,30.46,10.0,North,12.7,-,N/A,,Overcast,360,2013-05-02 05:15:00
12:35 AM,37.4,31.8,80,30.47,10.0,North,11.5,-,N/A,,Overcast,360,2013-05-02 05:35:00
12:55 AM,37.6,31.6,79,30.51,10.0,North,10.4,-,N/A,,Overcast,360,2013-05-02 05:55:00
1:15 AM,37.6,31.1,77,30.49,10.0,North,17.3,-,N/A,,Overcast,10,2013-05-02 06:15:00
1:35 AM,37.6,31.1,77,30.48,10.0,North,13.8,-,N/A,,Overcast,10,2013-05-02 06:35:00
1:55 AM,37.4,31.5,79,30.51,10.0,North,10.4,-,N/A,,Overcast,10,2013-05-02 06:55:00
2:15 AM,37.8,30.2,74,30.51,10.0,North,16.1,-,N/A,,Overcast,360,2013-05-02 07:15:00
2:35 AM,37.8,29.8,73,30.50,10.0,North,15.0,-,N/A,,Overcast,10,2013-05-02 07:35:00
2:55 AM,37.6,29.8,74,30.51,10.0,NNE,10.4,-,N/A,,Overcast,30,2013-05-02 07:55:00
3:15 AM,38.1,29.3,71,30.52,10.0,NE,11.5,17.3,N/A,,Overcast,40,2013-05-02 08:15:00
3:35 AM,38.5,29.7,71,30.52,10.0,North,23.0,28.8,N/A,,Overcast,10,2013-05-02 08:35:00
3:55 AM,39.2,28.4,65,30.53,10.0,North,19.6,-,N/A,,Overcast,10,2013-05-02 08:55:00
4:15 AM,38.8,28.0,65,30.54,10.0,North,20.7,-,N/A,,Overcast,10,2013-05-02 09:15:00
4:35 AM,40.3,25.9,56,30.54,10.0,North,23.0,34.5,N/A,,Overcast,10,2013-05-02 09:35:00
4:55 AM,39.2,27.5,63,30.55,10.0,North,20.7,35.7,N/A,,Overcast,10,2013-05-02 09:55:00
5:15 AM,38.3,28.8,69,30.57,10.0,NNW,10.4,18.4,N/A,,Overcast,340,2013-05-02 10:15:00
5:35 AM,37.6,29.8,74,30.56,10.0,NW,10.4,-,N/A,,Overcast,320,2013-05-02 10:35:00
5:55 AM,37.8,29.7,73,30.57,10.0,NW,10.4,-,N/A,,Overcast,320,2013-05-02 10:55:00
6:15 AM,37.6,30.0,74,30.57,10.0,NNW,11.5,-,N/A,,Overcast,330,2013-05-02 11:15:00
6:35 AM,37.4,30.0,75,30.57,10.0,NNW,11.5,16.1,N/A,,Overcast,330,2013-05-02 11:35:00
6:55 AM,37.4,29.7,74,30.58,10.0,NNW,11.5,-,N/A,,Overcast,330,2013-05-02 11:55:00
7:15 AM,37.4,29.8,74,30.58,10.0,NNW,11.5,-,N/A,,Overcast,340,2013-05-02 12:15:00
7:35 AM,37.6,29.7,73,30.59,10.0,NNW,11.5,-,N/A,,Overcast,340,2013-05-02 12:35:00
7:55 AM,38.3,29.5,71,30.60,10.0,NNW,13.8,-,N/A,,Overcast,340,2013-05-02 12:55:00
8:15 AM,38.7,29.8,71,30.61,10.0,North,12.7,-,N/A,,Overcast,350,2013-05-02 13:15:00
8:35 AM,39.2,29.5,68,30.61,10.0,North,12.7,21.9,N/A,,Overcast,350,2013-05-02 13:35:00
8:55 AM,40.1,29.8,67,30.61,10.0,North,19.6,-,N/A,,Overcast,360,2013-05-02 13:55:00
9:15 AM,40.6,28.9,63,30.61,10.0,North,18.4,24.2,N/A,,Overcast,360,2013-05-02 14:15:00
9:35 AM,41.5,28.4,60,30.61,10.0,North,19.6,-,N/A,,Mostly Cloudy,360,2013-05-02 14:35:00
9:55 AM,41.9,27.3,56,30.61,10.0,North,20.7,25.3,N/A,,Mostly Cloudy,10,2013-05-02 14:55:00
10:15 AM,43.0,27.9,55,30.61,10.0,North,20.7,25.3,N/A,,Mostly Cloudy,10,2013-05-02 15:15:00
10:35 AM,43.3,28.6,56,30.61,10.0,North,18.4,24.2,N/A,,Scattered Clouds,360,2013-05-02 15:35:00
10:55 AM,45.0,30.7,57,30.61,10.0,North,18.4,23.0,N/A,,Scattered Clouds,10,2013-05-02 15:55:00
11:15 AM,45.3,30.4,56,30.62,10.0,North,18.4,24.2,N/A,,Clear,360,2013-05-02 16:15:00
11:35 AM,46.6,28.8,50,30.62,10.0,NNE,20.7,25.3,N/A,,Clear,20,2013-05-02 16:35:00
11:55 AM,46.8,29.1,50,30.61,10.0,North,18.4,29.9,N/A,,Clear,360,2013-05-02 16:55:00
12:15 PM,48.2,28.2,46,30.61,10.0,North,18.4,25.3,N/A,,Scattered Clouds,360,2013-05-02 17:15:00
12:35 PM,48.9,30.6,49,30.60,10.0,North,17.3,25.3,N/A,,Scattered Clouds,360,2013-05-02 17:35:00
12:55 PM,49.1,29.1,46,30.59,10.0,North,19.6,25.3,N/A,,Scattered Clouds,10,2013-05-02 17:55:00
1:15 PM,48.9,26.6,42,30.58,10.0,North,19.6,25.3,N/A,,Scattered Clouds,350,2013-05-02 18:15:00
1:35 PM,48.7,27.1,43,30.58,10.0,North,18.4,26.5,N/A,,Scattered Clouds,10,2013-05-02 18:35:00
1:55 PM,49.6,26.2,40,30.58,10.0,North,18.4,24.2,N/A,,Scattered Clouds,10,2013-05-02 18:55:00
2:15 PM,50.2,25.3,38,30.57,10.0,NNE,18.4,27.6,N/A,,Scattered Clouds,20,2013-05-02 19:15:00
2:35 PM,51.8,23.9,34,30.56,10.0,North,17.3,27.6,N/A,,Clear,360,2013-05-02 19:35:00
2:55 PM,52.2,23.0,32,30.55,10.0,North,17.3,29.9,N/A,,Scattered Clouds,350,2013-05-02 19:55:00
3:15 PM,52.3,23.4,32,30.54,10.0,North,18.4,24.2,N/A,,Scattered Clouds,10,2013-05-02 20:15:00
3:35 PM,51.6,24.4,35,30.54,10.0,North,16.1,23.0,N/A,,Scattered Clouds,10,2013-05-02 20:35:00
3:55 PM,53.4,23.9,32,30.53,10.0,North,18.4,26.5,N/A,,Scattered Clouds,360,2013-05-02 20:55:00
4:15 PM,53.1,21.6,29,30.51,10.0,North,18.4,25.3,N/A,,Scattered Clouds,350,2013-05-02 21:15:00
4:55 PM,53.8,21.9,29,30.50,10.0,North,16.1,24.2,N/A,,Scattered Clouds,350,2013-05-02 21:55:00
5:15 PM,51.1,21.0,31,30.49,10.0,North,12.7,23.0,N/A,,Scattered Clouds,350,2013-05-02 22:15:00
5:35 PM,53.6,22.1,29,30.48,10.0,NNE,16.1,21.9,N/A,,Scattered Clouds,20,2013-05-02 22:35:00
5:55 PM,52.9,20.8,29,30.48,10.0,NNE,11.5,21.9,N/A,,Scattered Clouds,30,2013-05-02 22:55:00
6:15 PM,53.1,21.0,29,30.47,10.0,NNE,13.8,20.7,N/A,,Scattered Clouds,20,2013-05-02 23:15:00
7:15 PM,52.0,21.4,30,30.46,10.0,North,6.9,-,N/A,,Clear,360,2013-05-03 00:15:00
7:35 PM,51.3,21.6,31,30.46,10.0,North,13.8,-,N/A,,Clear,10,2013-05-03 00:35:00
7:55 PM,49.3,24.1,37,30.45,10.0,NNE,8.1,-,N/A,,Clear,30,2013-05-03 00:55:00
8:15 PM,46.8,25.5,43,30.45,10.0,NNE,4.6,-,N/A,,Clear,20,2013-05-03 01:15:00
8:35 PM,45.1,26.1,47,30.45,10.0,NNE,4.6,-,N/A,,Clear,20,2013-05-03 01:35:00
8:55 PM,41.7,25.7,53,30.45,10.0,NNE,4.6,-,N/A,,Clear,20,2013-05-03 01:55:00
9:15 PM,42.8,25.5,51,30.45,10.0,NNE,4.6,-,N/A,,Clear,20,2013-05-03 02:15:00
9:35 PM,43.3,25.5,49,30.45,10.0,Calm,Calm,-,N/A,,Clear,0,2013-05-03 02:35:00
9:55 PM,38.5,26.8,63,30.45,10.0,Calm,Calm,-,N/A,,Scattered Clouds,0,2013-05-03 02:55:00
10:15 PM,38.5,27.1,64,30.45,10.0,WNW,3.5,-,N/A,,Scattered Clouds,290,2013-05-03 03:15:00
10:35 PM,40.5,26.2,57,30.45,10.0,WNW,4.6,-,N/A,,Clear,290,2013-05-03 03:35:00
10:55 PM,37.8,25.9,62,30.44,10.0,WNW,4.6,-,N/A,,Clear,300,2013-05-03 03:55:00
11:15 PM,37.4,25.7,63,30.44,10.0,NW,3.5,-,N/A,,Clear,310,2013-05-03 04:15:00
11:35 PM,39.0,25.7,59,30.43,10.0,NNW,3.5,-,N/A,,Clear,330,2013-05-03 04:35:00
11:55 PM,37.6,26.1,63,30.43,10.0,Calm,Calm,-,N/A,,Clear,0,2013-05-03 04:55:00